Location: ???????
(55.8860°N, 38.0932°E)
Time: 20:49:06
(UTC+00:00)

Cosmos 2112 Rocket - Pass Details

Date: 14 April 2024
Orbit: 754 x 785 km, 74.0° (Epoch: 18 May)

Event Time Altitude Azimuth Distance (km) Brightness Sun altitude
Exits shadow 01:39:34 - 204° (SSW) 3,226 6.8 -6.6°
Reaches altitude 10° 01:41:52 10° 203° (SSW) 2,337 6.1 -6.3°
Maximum altitude 01:47:12 85° 117° (ESE) 797 4.2 -5.6°
Drops below altitude 10° 01:52:35 10° 29° (NNE) 2,359 7.5 -4.9°
Sets 01:54:59 0° 29° (NNE) 3,291 8.3 -4.6°
